SCP
1 1 1 1 0 0 0 0 0 0 0 0 0 0 0 0 0 0 0 0 0 0 0 0 0 0 0 0 0 0 0 0 0 0 0 0 0 0 0 0 0 0 0 0
1 1 1 0 0 0 0 0 0 0 0 0 0 0 0 0 0 0 0 0 0 0 0 0 0 0 0 0 0 0 0 0 0 0 0 0 0 0 0 0 0 0 0 0
0 0 0 0 0 0 0 0 0 0 0 0 0 0 0 0 0 0 0 0 0 0 0 0 0 0 0 0 0 0 0 0 0 0 0 0 0 0 0 0 0 0 0 0
0 0 0 0 0 0 0 0 0 0 0 0 0 0 0 0 0 0 0 0 0 0 0 0 0 0 0 0 0 0 0 0 0 0 0 0 0 0 0 0 0 0 0 0
0 0 0 0 0 0 0 0 0 0 0 0 0 0 0 0 0 0 0 0 0 0 0 0 0 0 0 0 0 0 0 0 0 0 0 0 0 0 0 0 0 0 0 0
0 0 0 0 0 0 0 0 0 0 0 0 0 0 0 0 0 0 0 0 0 0 0 0 0 0 0 0 0 0 0 0 0 0 0 0 0 0 0 0 0 0 0 0
0 0 0 0 0 0 0 0 0 0 0 0 0 0 0 0 0 0 0 0 0 0 0 0 0 0 0 0 0 0 0 0 0 0 0 0 0 0 0 0 0 0 0 0
0 0 0 0 0 0 0 0 0 0 0 0 0 0 0 0 0 0 0 0 0 0 0 0 0 0 0 0 0 0 0 0 0 0 0 0 0 0 0 0 0 0 0 0
0 0 0 0 0 0 0 0 0 0 0 0 0 0 0 0 0 0 0 0 0 0 0 0 0 0 0 0 0 0 0 0 0 0 0 0 0 0 0 0 0 0 0 0
0 0 0 0 0 0 0 0 0 0 0 0 0 0 0 0 0 0 0 0 0 0 0 0 0 0 0 0 0 0 0 0 0 0 0 0 0 0 0 0 0 0 0 0
0 0 0 0 0 0 0 0 0 0 0 0 0 0 0 0 0 0 0 0 0 0 0 0 0 0 0 0 0 0 0 0 0 0 0 0 0 0 0 0 0 0 0 0
0 0 0 0 0 0 0 0 0 0 0 0 0 0 0 0 0 0 0 0 0 0 0 0 0 0 0 0 0 0 0 0 0 0 0 0 0 0 0 0 0 0 0 0
0 0 0 0 0 0 0 0 0 0 0 0 0 0 0 0 0 0 0 0 0 0 0 0 0 0 0 0 0 0 0 0 0 0 0 0 0 0 0 0 0 0 0 0
0 0 0 0 0 0 0 0 0 0 0 0 0 0 0 0 0 0 0 0 0 0 0 0 0 0 0 0 0 0 0 0 0 0 0 0 0 0 0 0 0 0 0 0
0 0 0 0 0 0 0 0 0 0 0 0 0 0 0 0 0 0 0 0 0 0 0 0 0 0 0 0 0 0 0 0 0 0 0 0 0 0 0 0 0 0 0 0
0 0 0 0 0 0 0 0 0 0 0 0 0 0 0 0 0 0 0 0 0 0 0 0 0 0 0 0 0 0 0 0 0 0 0 0 0 0 0 0 0 0 0 0
0 0 0 0 0 0 0 0 0 0 0 0 0 0 0 0 0 0 0 0 0 0 0 0 0 0 0 0 0 0 0 0 0 0 0 0 0 0 0 0 0 0 0 0
0 0 0 0 0 0 0 0 0 0 0 0 0 0 0 0 0 0 0 0 0 0 0 0 0 0 0 0 0 0 0 0 0 0 0 0 0 0 0 0 0 0 0 0
0 0 0 0 0 0 0 0 0 0 0 0 0 0 0 0 0 0 0 0 0 0 0 0 0 0 0 0 0 0 0 0 0 0 0 0 0 0 0 0 0 0 0 0
0 0 0 0 0 0 0 0 0 0 0 0 0 0 0 0 0 0 0 0 0 0 0 0 0 0 0 0 0 0 0 0 0 0 0 0 0 0 0 0 0 0 0 0
0 0 0 0 0 0 0 0 0 0 0 0 0 0 0 0 0 0 0 0 0 0 0 0 0 0 0 0 0 0 0 0 0 0 0 0 0 0 0 0 0 0 0 0
0 0 0 0 0 0 0 0 0 0 0 0 0 0 0 0 0 0 0 0 0 0 0 0 0 0 0 0 0 0 0 0 0 0 0 0 0 0 0 0 0 0 0 0
0 0 0 0 0 0 0 0 0 0 0 0 0 0 0 0 0 0 0 0 0 0 0 0 0 0 0 0 0 0 0 0 0 0 0 0 0 0 0 0 0 0 0 0
0 0 0 0 0 0 0 0 0 0 0 0 0 0 0 0 0 0 0 0 0 0 0 0 0 0 0 0 0 0 0 0 0 0 0 0 0 0 0 0 0 0 0 0
0 0 0 0 0 0 0 0 0 0 0 0 0 0 0 0 0 0 0 0 0 0 0 0 0 0 0 0 0 0 0 0 0 0 0 0 0 0 0 0 0 0 0 0
0 0 0 0 0 0 0 0 0 0 0 0 0 0 0 0 0 0 0 0 0 0 0 0 0 0 0 0 0 0 0 0 0 0 0 0 0 0 0 0 0 0 0 0
Wind_Speed
12 11 12 12 11 5 4 5 5 2 2 6 9 9 6 6 9 10 10 10 10 9 7 7 7 6 5 3 2 1 3 3 3 3 3 4 3 3 3 3 4 4 5 5
11 12 10 7 7 6 6 7 6 2 1 5 7 9 7 6 10 10 11 11 10 9 8 8 8 7 6 4 2 2 2 3 3 3 4 3 4 3 3 3 3 4 5 5
11 6 8 9 9 9 8 8 6 3 2 5 7 8 6 5 7 8 9 10 9 9 9 9 9 7 6 5 3 2 2 2 2 3 3 3 2 2 2 3 3 4 4 4
6 5 9 10 9 9 7 3 5 4 6 3 4 6 3 4 6 9 10 10 10 10 9 8 8 8 7 5 3 2 1 2 2 2 3 4 4 4 4 4 3 4 3 4
5 6 9 10 7 7 1 1 2 4 6 7 5 7 2 4 6 7 8 10 10 10 10 9 8 7 6 5 3 2 1 2 1 2 2 4 4 4 3 3 4 4 4 4
4 3 3 2 2 3 5 4 4 5 6 7 2 6 4 3 3 4 5 7 9 10 9 9 8 7 6 5 4 3 2 1 1 2 3 3 4 4 4 4 4 4 3 3
6 5 3 3 6 6 6 6 4 5 5 2 2 6 5 1 1 2 3 5 7 9 10 10 9 8 7 6 5 4 3 2 2 2 2 3 3 4 4 5 4 4 3 3
6 7 5 5 4 5 6 7 5 4 4 3 4 6 2 2 1 3 3 4 6 8 9 9 9 8 7 7 6 4 3 3 2 2 2 2 2 2 3 3 4 4 3 4
4 5 4 1 1 3 5 5 4 6 5 6 4 4 4 4 5 6 6 6 7 8 9 9 8 8 8 7 6 5 4 3 2 2 2 2 2 2 3 3 3 3 4 4
1 4 6 5 5 3 3 2 4 6 5 6 4 5 3 2 5 7 8 8 7 8 8 9 9 8 8 7 6 6 5 4 3 2 2 1 2 2 2 3 3 4 4 4
3 3 6 7 6 4 5 5 4 4 5 6 5 2 2 2 2 5 7 7 7 8 9 9 9 8 8 7 7 6 6 5 3 3 2 2 1 1 2 2 2 3 3 4
2 4 3 4 3 2 4 5 6 7 6 6 7 5 2 3 4 5 6 6 7 7 8 8 9 9 8 8 8 7 6 5 4 3 3 2 1 1 2 1 2 3 3 3
2 5 4 5 6 5 5 4 6 6 6 7 8 6 3 3 5 6 6 7 7 8 8 9 9 9 9 9 8 7 7 6 5 4 4 3 2 1 1 2 2 2 2 3
4 6 6 6 4 2 5 6 8 9 8 9 11 13 10 9 8 8 8 8 8 9 10 10 10 10 9 9 9 8 7 7 6 5 5 4 3 2 2 1 2 2 2 2
6 7 6 6 5 6 8 9 10 13 13 14 14 14 14 12 10 8 8 8 9 10 11 11 11 10 10 10 9 9 8 8 7 6 6 5 4 3 2 2 2 2 2 2
5 7 7 9 6 8 11 12 13 15 15 16 17 17 14 12 9 9 10 10 11 12 13 12 12 12 12 11 11 10 9 8 8 7 6 5 4 4 3 3 2 2 2 2
5 7 8 10 6 8 12 11 12 11 12 12 14 13 10 9 9 10 10 11 12 13 13 13 13 13 12 12 11 11 10 9 8 8 7 6 6 5 4 3 3 3 3 2
8 9 7 9 9 12 5 1 5 10 12 13 14 13 11 10 9 8 9 11 12 12 12 12 12 12 12 11 11 10 10 9 9 8 7 7 6 5 5 4 4 4 3 2
8 8 7 7 10 11 8 5 5 7 9 8 11 12 9 6 6 8 9 11 11 11 11 11 11 12 12 12 12 11 11 10 9 8 8 7 7 6 5 5 5 4 3 3
5 7 8 8 10 9 5 1 2 5 7 3 4 7 5 4 6 4 1 6 9 8 8 9 10 11 12 12 12 12 11 11 10 9 8 7 6 6 5 5 4 3 3 4
6 7 9 11 11 9 5 2 5 7 4 7 6 6 4 6 7 5 2 4 6 8 9 9 11 11 11 12 12 13 12 11 9 8 7 7 6 6 5 4 3 3 3 3
9 7 8 8 10 7 2 4 4 6 8 8 8 8 7 9 8 6 4 4 5 8 9 10 11 10 10 12 13 13 11 9 8 8 7 7 6 5 4 4 3 3 3 4
7 7 5 7 5 3 1 4 6 8 9 10 10 10 9 9 9 7 6 5 6 8 9 10 11 11 11 12 12 12 11 10 9 9 8 7 6 5 4 3 3 2 2 3
7 4 7 9 10 8 8 8 8 9 10 11 12 12 10 10 10 8 7 6 7 9 10 10 12 12 12 12 11 11 10 10 10 9 8 7 7 5 4 2 1 1 1 1
10 7 10 14 15 14 10 9 10 12 13 13 13 12 11 11 11 10 8 8 8 8 9 11 12 13 13 12 11 10 10 11 11 10 8 7 6 5 4 4 3 1 3 3
12 13 14 14 13 14 15 15 14 15 15 15 15 14 12 11 12 11 10 8 8 9 10 11 12 12 13 13 12 11 11 11 11 9 9 7 6 5 5 6 6 9 7 9
Wind_Direction
176 188 195 196 208 230 224 241 255 268 172 233 249 260 251 212 213 218 213 211 211 210 193 183 186 189 194 195 228 306 315 342 337 336 329 329 330 329 336 340 343 328 324 324
176 203 200 191 200 221 231 246 257 234 175 254 271 269 257 223 221 224 223 215 212 204 194 186 191 192 204 201 226 274 309 337 342 341 325 321 321 319 336 328 332 336 333 327
186 176 175 191 198 214 232 249 266 281 219 220 277 260 220 197 214 220 227 226 217 207 205 192 194 196 201 208 217 251 301 319 336 333 321 313 305 285 315 338 339 337 332 328
182 154 182 198 207 222 235 251 262 252 257 253 268 286 219 188 213 214 215 214 213 204 207 198 194 199 203 202 206 234 259 302 329 314 323 330 325 338 345 334 334 329 335 337
164 172 190 204 207 220 241 84 223 245 262 269 235 270 251 176 223 209 205 208 208 203 202 198 195 197 198 189 196 218 238 276 309 311 324 307 326 339 337 334 339 336 353 347
113 152 212 191 114 168 146 163 171 213 245 258 252 266 273 191 208 178 180 195 199 197 195 193 185 186 187 184 191 205 226 246 264 282 300 313 329 328 333 342 346 338 348 349
149 147 139 159 151 157 207 235 236 226 227 256 111 258 268 74 213 235 202 183 186 188 188 186 182 185 186 187 193 203 215 230 234 267 296 318 322 322 331 341 345 337 344 350
169 157 163 188 219 199 210 250 280 292 295 307 203 248 269 109 224 240 230 199 183 184 188 187 186 186 186 188 190 200 211 224 225 261 297 315 321 319 343 342 333 339 345 352
178 129 121 128 244 230 194 222 308 293 290 280 255 256 265 192 216 209 202 195 192 188 188 190 187 187 186 188 189 196 205 211 213 246 278 308 332 338 343 333 332 340 344 349
274 143 140 142 156 62 319 171 210 256 284 283 275 267 271 195 207 203 205 204 196 187 188 189 187 187 186 186 187 189 201 209 206 223 243 294 318 333 328 323 343 339 344 351
265 195 155 182 216 203 173 198 234 255 278 288 299 314 34 298 267 229 216 209 200 192 190 188 186 186 184 182 186 190 196 204 208 217 221 231 262 299 304 325 340 333 339 347
282 270 196 175 112 337 257 250 234 256 251 255 284 293 106 246 261 247 231 210 198 194 191 189 185 183 185 188 191 194 197 198 199 209 215 229 248 264 291 325 330 333 344 353
193 250 232 185 176 185 217 221 235 258 266 253 259 272 138 226 245 235 228 214 198 193 191 188 187 191 191 192 194 196 196 195 190 195 209 220 224 249 280 309 327 326 337 347
257 259 275 286 315 268 227 211 215 229 251 258 254 273 277 265 255 244 230 219 206 199 195 193 192 195 194 194 195 196 194 191 189 190 206 218 227 232 259 285 305 312 327 337
256 272 271 279 285 268 261 248 225 234 255 268 276 276 278 280 272 255 239 222 210 206 203 200 198 196 193 194 195 195 193 190 190 194 205 214 219 220 238 252 270 291 309 317
260 272 270 264 259 257 259 256 246 245 254 261 270 275 276 277 270 251 233 219 214 211 207 203 201 197 196 195 194 192 192 190 192 198 204 204 217 218 231 245 257 274 283 297
248 265 274 276 276 265 260 256 245 243 239 248 261 273 281 270 259 248 237 224 219 215 207 202 200 198 198 196 193 191 191 186 193 200 201 201 207 214 226 231 239 251 257 270
257 256 265 277 274 263 289 337 260 257 260 253 260 272 275 275 278 265 245 232 223 215 207 202 200 195 195 191 188 187 184 188 195 199 200 200 206 212 216 224 235 249 260 261
246 245 251 262 267 273 278 259 228 246 272 274 264 269 274 285 273 250 230 227 225 214 206 199 197 191 189 185 183 184 186 191 196 199 202 198 201 208 215 221 231 242 253 257
208 231 245 246 261 268 282 69 178 252 264 356 309 296 287 252 257 275 229 217 216 206 195 187 184 186 185 181 180 187 190 192 196 197 200 197 198 206 217 229 240 239 241 252
200 209 231 246 256 265 296 130 183 243 337 12 347 329 294 255 280 331 301 233 209 193 184 179 178 182 183 176 179 190 192 195 191 187 190 192 195 206 218 230 235 238 240 247
258 244 236 241 248 257 109 166 225 329 350 340 333 329 307 285 297 305 271 230 202 188 180 179 179 179 176 176 183 191 192 186 177 177 184 188 191 196 199 209 225 234 237 241
250 267 277 254 269 9 16 276 314 326 318 326 326 322 309 292 284 284 268 237 210 197 185 183 182 176 175 181 189 192 183 175 174 177 181 182 181 181 190 198 205 218 231 253
263 274 265 265 269 289 297 293 298 307 307 313 316 313 303 289 284 276 262 240 216 203 191 185 182 182 182 183 190 192 175 174 178 180 180 180 180 175 168 165 188 203 246 256
282 274 271 274 283 293 286 301 316 317 311 309 311 307 299 290 281 274 261 242 223 206 195 191 192 190 186 181 184 183 176 178 183 181 178 179 174 165 152 128 68 56 54 21
263 266 268 274 293 295 297 309 315 313 310 310 309 305 299 287 280 274 263 247 228 214 200 197 197 194 189 182 180 178 178 183 185 182 178 174 168 161 155 140 111 65 68 69